Wetbulb
69.85 72.52 75.23 74.55 74.15 73.90 73.80 74.28 75.55 76.03 75.55 75.35 74.73 74.68 74.62 74.37 74.18 73.15 71.83 71.18 72.27 72.65 73.73 73.66 73.50 72.19 71.35 71.06 70.96 71.04 71.28 71.07 70.51 69.55 69.48 70.38 70.92 71.25 71.65 71.04 70.50 69.33 71.04
71.01 73.03 74.83 74.74 74.22 73.90 73.75 74.04 74.42 75.22 75.20 75.40 75.00 74.45 74.33 74.37 73.94 73.05 72.23 71.77 71.72 72.45 73.58 73.41 73.21 71.60 70.84 70.25 69.56 69.04 69.26 68.75 68.33 68.68 68.68 68.66 69.16 69.20 69.55 69.48 69.31 68.41 69.65
71.30 73.04 73.51 74.74 74.80 74.69 74.40 73.35 73.51 73.98 75.03 74.98 74.82 74.67 74.30 74.52 73.90 72.61 72.09 71.78 72.18 72.36 72.41 73.36 72.63 71.11 70.48 69.24 68.91 69.61 69.33 68.90 69.16 69.32 68.58 65.01 66.18 68.74 68.65 68.31 67.91 68.69 68.88
71.82 72.82 73.10 74.86 74.87 74.72 74.52 73.52 73.23 72.71 73.97 74.76 74.50 74.79 75.22 74.45 73.44 72.34 72.03 72.31 72.98 72.33 72.06 71.70 72.12 70.78 70.19 68.74 68.65 69.24 68.96 68.23 67.93 67.70 64.63 65.22 66.42 68.97 68.81 68.59 68.35 67.75 67.60
71.11 72.00 73.03 74.73 74.78 74.63 74.48 73.62 73.06 73.06 73.29 74.48 74.46 74.21 74.42 74.28 73.39 72.22 73.25 73.42 72.57 72.07 72.25 71.38 72.28 70.91 70.24 68.87 67.87 68.10 67.87 68.14 68.95 66.66 64.31 64.10 64.59 67.76 68.58 68.19 67.84 68.00 67.73
70.09 70.85 73.29 74.33 74.55 74.44 73.95 73.83 73.17 73.42 73.08 73.85 73.67 73.83 73.98 73.67 73.34 73.01 73.25 72.53 70.78 70.30 70.22 70.68 71.96 70.94 70.23 69.14 67.93 67.81 68.12 68.30 66.84 64.89 64.84 66.28 64.45 68.54 68.49 68.30 68.02 67.87 67.50
67.97 71.34 72.47 74.10 74.05 74.03 73.43 73.55 73.41 72.81 73.00 73.40 73.46 73.71 73.63 73.59 73.09 73.02 72.30 71.02 70.04 69.83 71.38 71.06 71.31 71.08 70.35 69.27 67.91 67.26 67.02 66.83 63.39 63.90 63.49 64.39 65.45 68.77 68.41 67.82 67.90 67.96 67.54
65.73 69.35 71.66 72.28 72.54 72.99 72.67 72.85 72.69 72.56 72.49 73.71 73.01 73.26 73.45 73.14 73.19 72.42 71.27 70.12 69.94 71.46 72.16 71.28 70.89 71.01 70.49 69.42 67.98 66.51 66.28 65.22 62.90 64.20 64.31 64.65 68.82 68.71 68.44 67.58 67.19 67.36 67.31
64.55 63.65 63.31 63.92 68.10 70.51 71.19 71.49 71.99 72.26 71.71 73.70 72.72 72.47 72.36 71.95 72.11 70.70 70.23 70.34 70.83 70.97 70.94 71.48 71.39 70.82 70.36 69.34 67.48 66.50 65.67 64.49 59.51 64.08 65.37 64.86 69.15 68.67 68.16 67.66 66.85 66.57 66.53
63.53 62.97 62.99 63.00 63.03 63.05 62.52 67.11 68.95 71.05 71.08 71.39 71.53 70.94 70.22 70.16 70.50 70.54 69.70 70.28 70.71 70.74 70.21 69.88 69.32 68.72 68.49 67.71 66.44 65.60 64.20 63.42 58.75 63.62 64.55 65.37 68.82 67.96 67.90 67.42 66.97 66.11 65.69
63.18 61.87 62.59 62.97 62.51 62.46 62.90 63.44 64.23 68.27 69.67 69.19 69.55 68.65 67.86 67.74 68.19 68.28 67.73 68.63 69.48 69.90 69.53 68.81 68.44 68.07 66.88 65.36 64.78 63.43 62.52 56.85 57.14 61.35 64.10 68.70 68.83 67.65 67.57 67.86 67.04 66.47 65.37
59.26 61.82 62.13 62.81 62.35 61.90 62.74 62.59 62.68 65.81 67.45 69.01 68.90 67.85 66.87 66.28 65.77 66.80 66.41 67.25 68.86 69.05 68.67 68.57 67.82 67.04 64.17 58.95 58.45 61.44 55.60 54.11 55.15 59.17 60.80 67.97 68.22 67.86 67.51 67.75 67.30 67.17 66.40
57.44 58.75 60.44 61.74 62.01 61.16 61.85 62.19 62.06 62.89 65.85 68.20 67.50 67.09 66.09 65.45 64.66 64.93 65.31 66.25 66.27 65.27 65.00 65.62 64.66 61.29 58.11 56.61 56.53 55.78 55.12 54.60 55.66 58.70 61.94 66.55 67.81 68.35 67.94 67.29 67.83 68.00 68.00
57.12 58.77 59.86 61.11 61.23 60.81 62.05 62.12 61.83 63.13 65.06 66.22 66.98 66.84 65.51 64.62 64.82 64.83 64.37 63.98 63.82 63.13 61.99 61.78 60.94 59.32 57.57 56.46 56.02 55.72 55.50 57.97 58.55 58.49 60.19 65.23 67.27 67.69 68.30 68.21 67.95 67.75 67.65
57.40 58.11 58.58 61.12 61.01 61.22 61.39 62.74 62.97 63.21 64.34 65.27 65.69 66.46 65.78 64.46 64.71 64.85 64.09 64.23 62.93 62.25 60.88 60.55 59.90 58.61 57.40 57.33 56.92 56.84 57.00 59.06 59.97 60.02 58.77 62.76 65.28 67.52 67.83 67.81 67.87 68.08 68.38
58.44 58.26 59.64 61.43 61.91 62.25 61.74 62.90 63.66 64.99 64.97 64.00 65.40 64.98 64.47 64.51 64.02 63.79 63.35 62.89 62.28 61.37 60.60 60.50 59.06 58.17 57.31 56.94 57.87 58.56 59.18 60.49 60.80 61.95 62.17 62.11 64.59 66.23 68.28 68.19 68.05 68.29 67.95
59.33 59.05 60.04 61.13 62.30 61.96 62.37 63.26 65.12 65.97 63.83 62.96 64.92 62.18 64.67 63.99 62.28 62.20 61.77 61.55 61.38 60.89 59.22 58.77 58.26 57.12 57.02 57.93 58.35 60.44 61.39 61.29 61.57 62.30 62.14 61.18 62.66 63.69 66.32 68.22 68.20 67.59 66.89
59.13 59.58 60.20 62.06 61.70 61.85 63.48 63.76 65.92 65.99 64.70 63.31 63.38 63.02 64.09 63.63 62.12 60.35 59.60 59.43 59.47 59.00 58.56 57.70 57.52 57.55 58.62 59.51 60.05 60.66 61.25 62.28 62.46 63.32 63.05 63.14 63.44 63.40 64.11 66.62 67.93 67.11 65.85
59.19 59.58 59.87 61.25 60.77 62.67 63.25 64.09 65.00 65.35 65.09 64.48 63.14 62.99 62.87 62.83 61.21 60.18 60.40 59.92 60.54 60.74 59.47 59.42 58.22 58.76 59.29 60.06 60.21 60.86 60.50 60.86 62.45 62.03 59.87 60.41 61.84 61.50 61.23 63.39 64.30 63.50 64.26
58.81 59.57 60.40 60.47 60.41 61.93 61.82 62.39 63.96 64.56 64.85 65.38 64.45 64.69 63.79 63.46 62.95 62.22 62.31 62.43 62.66 61.82 60.78 60.50 59.19 60.15 60.52 60.34 60.61 60.43 60.51 60.98 61.57 61.58 60.12 60.22 59.95 59.17 60.23 60.84 59.97 61.00 64.13
59.78 60.08 60.64 60.56 60.76 62.11 61.47 60.95 60.95 61.79 64.00 64.42 64.70 66.17 66.05 65.76 65.63 64.06 62.88 62.95 63.59 62.44 61.72 61.49 60.87 60.12 59.26 59.51 59.20 59.63 59.92 60.70 61.08 60.59 60.00 57.04 57.68 58.29 59.04 59.33 59.58 60.23 62.29
58.23 59.77 60.51 60.62 60.79 61.55 61.32 62.02 61.82 61.98 62.62 63.76 64.35 64.64 65.00 65.01 65.34 64.51 63.45 63.00 63.02 62.36 62.22 62.41 61.93 60.72 59.67 59.73 58.02 58.13 56.13 57.29 59.04 58.98 57.31 55.99 56.83 57.96 58.45 59.12 59.61 58.82 58.12
56.57 57.38 60.20 60.77 61.01 61.33 61.50 61.61 61.41 61.28 60.93 61.19 62.06 62.43 63.00 63.64 64.12 63.63 63.47 63.41 63.08 62.49 61.81 61.83 61.94 61.53 60.56 61.09 60.63 58.53 55.08 53.67 54.43 55.34 54.96 55.27 55.59 55.85 56.97 57.67 58.96 58.60 57.14
53.92 56.98 59.56 60.43 61.07 61.03 61.07 60.51 59.86 58.67 58.28 60.16 60.79 61.37 61.79 62.36 62.56 63.31 63.23 63.20 63.56 62.80 61.73 61.73 62.21 61.41 60.95 59.65 60.13 61.48 60.50 59.61 54.58 52.60 55.40 55.46 54.54 53.76 55.56 56.20 55.97 55.95 55.19
53.78 54.63 55.41 58.62 60.26 60.74 60.31 60.36 59.50 59.01 59.59 60.13 60.55 59.71 60.16 61.10 61.48 61.62 62.25 62.42 62.25 62.35 61.82 61.53 60.52 60.88 61.50 60.20 59.72 58.92 59.11 57.46 56.04 54.35 51.12 52.58 54.87 55.02 54.23 56.40 56.38 55.14 54.32
52.64 55.08 54.94 55.58 57.62 59.09 59.27 59.77 59.61 58.95 58.86 58.56 58.93 58.71 59.18 59.73 60.44 60.87 61.12 61.00 60.64 61.39 61.98 61.99 60.98 60.09 59.48 59.24 58.83 58.47 56.49 55.33 53.61 52.68 51.24 51.76 52.04 53.44 54.90 55.27 54.75 53.08 51.89
MSLP
1010.76 1010.47 1010.82 1011.28 1011.61 1011.97 1012.26 1012.48 1012.72 1012.86 1013.11 1013.39 1013.64 1013.93 1014.34 1014.53 1014.78 1015.07 1015.28 1015.58 1015.85 1016.00 1016.07 1016.20 1016.36 1016.48 1016.84 1017.10 1017.27 1017.45 1017.59 1017.73 1017.89 1018.00 1018.08 1018.00 1017.87 1017.82 1017.81 1017.78 1017.84 1017.81 1017.73
1010.30 1010.58 1010.76 1011.13 1011.59 1012.08 1012.42 1012.63 1012.90 1013.09 1013.22 1013.46 1013.69 1013.95 1014.31 1014.61 1014.84 1015.09 1015.37 1015.59 1015.84 1016.01 1016.17 1016.41 1016.57 1016.92 1017.22 1017.41 1017.60 1017.67 1017.87 1018.00 1018.11 1018.20 1018.25 1018.22 1018.22 1018.20 1018.18 1018.20 1018.20 1018.18 1018.17
1010.02 1010.44 1010.69 1011.19 1011.42 1012.00 1012.51 1012.83 1013.00 1013.25 1013.37 1013.59 1013.81 1013.96 1014.30 1014.66 1014.92 1015.19 1015.46 1015.65 1015.88 1016.04 1016.12 1016.45 1016.83 1017.26 1017.48 1017.68 1017.81 1017.89 1018.05 1018.25 1018.35 1018.44 1018.41 1018.55 1018.51 1018.50 1018.54 1018.59 1018.62 1018.59 1018.54
1009.99 1010.38 1010.76 1011.02 1011.60 1011.90 1012.46 1012.90 1013.14 1013.31 1013.51 1013.66 1013.88 1014.03 1014.21 1014.68 1015.04 1015.29 1015.55 1015.73 1015.90 1016.19 1016.48 1016.60 1016.96 1017.46 1017.74 1017.85 1017.98 1018.12 1018.31 1018.49 1018.56 1018.63 1018.70 1018.75 1018.68 1018.72 1018.82 1018.89 1018.88 1018.93 1018.91
1010.23 1010.28 1010.76 1011.13 1011.69 1012.04 1012.51 1012.95 1013.28 1013.40 1013.59 1013.71 1013.93 1014.14 1014.31 1014.63 1015.09 1015.33 1015.57 1015.73 1015.96 1016.37 1016.64 1016.82 1017.21 1017.67 1017.84 1018.03 1018.14 1018.29 1018.40 1018.51 1018.47 1018.73 1018.90 1019.02 1019.09 1019.09 1019.11 1019.22 1019.24 1019.21 1019.16
1010.29 1010.49 1010.96 1010.80 1011.78 1012.11 1012.65 1013.02 1013.38 1013.54 1013.63 1013.79 1013.97 1014.17 1014.34 1014.61 1015.04 1015.45 1015.64 1015.82 1015.96 1016.45 1016.82 1017.07 1017.36 1017.75 1018.05 1018.14 1018.26 1018.41 1018.47 1018.56 1018.89 1018.88 1019.08 1019.13 1019.27 1019.28 1019.41 1019.45 1019.43 1019.44 1019.42
1010.90 1010.72 1011.08 1011.05 1011.49 1012.43 1012.76 1013.08 1013.47 1013.67 1013.70 1013.92 1014.01 1014.19 1014.36 1014.52 1014.89 1015.45 1015.74 1015.87 1016.28 1016.67 1017.03 1017.33 1017.49 1017.77 1018.13 1018.30 1018.35 1018.50 1018.64 1018.77 1018.91 1019.15 1019.17 1019.37 1019.44 1019.50 1019.59 1019.65 1019.66 1019.71 1019.74
1011.07 1011.15 1011.41 1011.54 1011.69 1012.55 1013.02 1013.13 1013.59 1013.70 1013.72 1013.87 1014.10 1014.23 1014.44 1014.58 1014.83 1015.38 1015.89 1016.11 1016.61 1016.80 1016.91 1017.35 1017.66 1017.87 1018.16 1018.40 1018.48 1018.57 1018.74 1018.84 1019.11 1019.18 1019.39 1019.49 1019.49 1019.57 1019.70 1019.83 1019.93 1019.94 1019.96
1011.11 1011.96 1012.73 1012.93 1012.59 1013.18 1013.39 1013.54 1013.75 1013.82 1013.72 1013.89 1014.05 1014.26 1014.44 1014.72 1015.00 1015.35 1015.87 1016.49 1016.79 1016.97 1017.08 1017.36 1017.66 1017.99 1018.26 1018.52 1018.67 1018.68 1018.78 1018.88 1019.19 1019.29 1019.41 1019.59 1019.59 1019.64 1019.76 1019.88 1019.96 1020.02 1020.07
1012.35 1012.55 1012.87 1013.14 1013.40 1013.72 1014.52 1014.62 1014.28 1014.13 1013.91 1013.82 1014.04 1014.33 1014.68 1014.83 1015.16 1015.45 1015.94 1016.58 1016.85 1017.20 1017.32 1017.46 1017.80 1018.10 1018.34 1018.53 1018.74 1018.78 1018.86 1018.92 1019.11 1019.18 1019.37 1019.54 1019.53 1019.60 1019.76 1019.87 1019.95 1020.02 1020.11
1012.62 1013.09 1012.91 1013.23 1013.49 1013.83 1014.28 1014.68 1015.07 1014.58 1014.18 1014.02 1014.19 1014.48 1014.84 1014.82 1015.28 1015.74 1015.98 1016.57 1016.97 1017.24 1017.40 1017.60 1017.84 1018.13 1018.42 1018.58 1018.69 1018.78 1018.81 1019.00 1019.16 1019.24 1019.32 1019.32 1019.45 1019.54 1019.65 1019.76 1019.89 1019.98 1020.11
1012.10 1012.41 1012.87 1012.88 1013.06 1013.08 1014.32 1014.91 1015.36 1015.63 1014.67 1014.42 1014.48 1014.75 1014.80 1014.66 1015.27 1015.76 1016.22 1016.51 1017.05 1017.40 1017.43 1017.55 1017.85 1018.14 1018.42 1018.71 1018.78 1018.77 1018.95 1019.09 1019.17 1019.25 1019.29 1019.20 1019.34 1019.44 1019.56 1019.72 1019.85 1019.92 1019.98
1012.40 1012.64 1012.19 1012.41 1012.42 1012.49 1013.97 1015.33 1015.68 1015.56 1015.51 1014.58 1014.65 1014.40 1014.80 1014.74 1015.25 1015.96 1016.26 1016.53 1016.96 1017.51 1017.61 1017.59 1017.83 1018.16 1018.42 1018.59 1018.71 1018.68 1018.75 1018.98 1019.07 1018.95 1018.98 1019.06 1019.15 1019.34 1019.43 1019.58 1019.71 1019.76 1019.76
1011.86 1012.24 1012.50 1011.99 1012.13 1012.68 1013.53 1013.93 1015.09 1015.22 1015.25 1014.63 1014.29 1014.45 1014.37 1014.63 1015.20 1015.81 1016.08 1016.53 1016.91 1017.38 1017.63 1017.71 1017.86 1017.97 1018.23 1018.36 1018.43 1018.47 1018.48 1018.48 1018.79 1018.82 1018.79 1018.82 1018.97 1019.06 1019.20 1019.33 1019.44 1019.55 1019.63
1011.44 1011.65 1012.34 1012.52 1012.61 1011.77 1012.37 1013.31 1013.70 1014.13 1014.07 1014.10 1013.89 1014.04 1014.16 1014.46 1015.08 1015.51 1015.79 1016.19 1016.63 1017.08 1017.38 1017.54 1017.59 1017.66 1017.84 1017.96 1017.98 1018.10 1018.13 1018.02 1018.10 1018.47 1018.65 1018.65 1018.65 1018.90 1018.97 1019.08 1019.19 1019.31 1019.32
1010.89 1011.44 1011.89 1012.22 1012.57 1011.97 1012.62 1012.15 1012.98 1012.39 1012.45 1012.98 1013.19 1013.39 1013.76 1014.11 1014.49 1015.11 1015.47 1015.71 1016.11 1016.48 1016.73 1016.94 1017.18 1017.41 1017.48 1017.53 1017.41 1017.58 1017.73 1017.83 1017.78 1018.07 1018.14 1018.29 1018.51 1018.54 1018.68 1018.80 1018.92 1019.06 1019.12
1010.74 1011.35 1011.42 1011.59 1011.73 1011.78 1012.24 1011.28 1010.91 1011.21 1011.29 1012.02 1012.23 1012.90 1013.16 1013.55 1014.07 1014.45 1015.06 1015.35 1015.53 1015.86 1016.16 1016.43 1016.68 1016.89 1017.15 1017.16 1017.30 1017.34 1017.29 1017.43 1017.54 1017.42 1017.75 1017.98 1018.17 1018.28 1018.53 1018.64 1018.76 1018.85 1019.02
1010.21 1011.03 1011.20 1011.24 1011.34 1011.52 1011.11 1010.60 1010.35 1010.70 1011.04 1011.30 1011.62 1012.08 1012.32 1012.87 1013.35 1013.98 1014.55 1014.94 1015.11 1015.51 1015.78 1016.15 1016.48 1016.75 1016.92 1017.03 1017.07 1017.04 1017.27 1017.06 1017.04 1017.06 1017.15 1017.48 1017.69 1018.03 1018.38 1018.44 1018.51 1018.66 1018.76
1009.88 1010.43 1010.99 1010.92 1011.16 1010.86 1010.99 1010.83 1009.70 1011.16 1011.34 1011.24 1011.29 1011.75 1012.12 1012.51 1012.91 1013.54 1014.16 1014.49 1014.69 1015.09 1015.51 1015.87 1016.20 1016.34 1016.78 1016.80 1016.95 1017.08 1016.96 1017.07 1016.93 1016.89 1017.20 1017.39 1017.43 1017.85 1018.24 1018.35 1018.47 1018.61 1018.65
1009.84 1010.26 1010.57 1011.01 1011.05 1011.10 1010.80 1010.71 1009.45 1010.51 1011.28 1011.44 1010.98 1011.48 1011.87 1012.17 1012.48 1013.10 1013.65 1014.09 1014.32 1014.90 1015.28 1015.52 1015.79 1016.10 1016.18 1016.55 1016.70 1016.92 1017.04 1016.76 1016.77 1016.83 1017.06 1017.22 1017.46 1017.82 1018.09 1018.33 1018.53 1018.58 1018.58
1009.90 1009.98 1009.94 1010.67 1010.75 1010.77 1010.33 1010.58 1010.01 1009.65 1010.96 1011.45 1011.47 1011.17 1011.53 1011.78 1012.08 1012.76 1013.52 1013.92 1013.89 1014.43 1014.75 1015.10 1015.54 1015.81 1016.09 1016.42 1016.83 1017.03 1017.11 1016.98 1016.68 1016.63 1016.91 1017.37 1017.48 1017.66 1017.75 1018.37 1018.57 1018.60 1018.47
1009.91 1009.87 1009.98 1009.80 1010.15 1010.40 1010.24 1009.96 1009.62 1009.99 1010.66 1011.03 1011.64 1011.59 1011.42 1011.52 1011.98 1012.56 1012.98 1013.46 1013.84 1014.14 1014.64 1014.97 1015.19 1015.61 1015.94 1016.22 1016.72 1017.15 1017.54 1017.38 1016.97 1016.84 1017.10 1017.44 1017.39 1017.50 1017.59 1018.01 1018.37 1018.68 1018.80
1009.97 1009.87 1009.84 1009.46 1009.63 1009.94 1009.84 1009.88 1010.12 1009.95 1010.78 1011.27 1011.70 1012.08 1012.33 1011.94 1011.78 1012.21 1012.68 1013.20 1013.57 1013.93 1014.41 1014.86 1015.06 1015.38 1015.91 1016.05 1016.35 1016.69 1017.31 1017.70 1017.58 1017.16 1017.16 1017.32 1017.46 1017.64 1017.81 1017.98 1018.29 1018.52 1018.89
1010.27 1009.81 1009.43 1009.45 1008.59 1009.58 1009.86 1010.09 1010.15 1010.47 1010.67 1011.27 1011.49 1012.32 1012.47 1012.19 1012.19 1012.39 1012.63 1012.93 1013.19 1013.46 1013.82 1013.94 1014.39 1014.84 1015.52 1015.82 1016.20 1016.39 1016.58 1017.18 1018.01 1018.37 1017.79 1017.44 1017.42 1017.57 1017.92 1018.08 1018.28 1018.49 1018.82
1010.21 1009.77 1010.05 1009.94 1009.11 1009.55 1010.00 1010.11 1010.58 1011.11 1011.01 1011.02 1011.67 1012.33 1012.51 1012.48 1012.57 1012.76 1012.89 1013.08 1013.36 1013.25 1013.57 1014.29 1014.67 1014.34 1014.23 1014.40 1015.15 1015.80 1016.18 1016.97 1017.65 1018.51 1018.62 1018.11 1017.52 1017.55 1017.93 1018.05 1018.07 1018.38 1018.65
1010.65 1010.26 1010.81 1010.61 1010.08 1010.17 1010.11 1010.53 1011.21 1011.24 1011.36 1011.59 1011.74 1012.09 1012.05 1012.35 1012.70 1012.92 1013.09 1013.29 1013.28 1013.59 1013.93 1014.08 1014.31 1014.60 1014.84 1014.62 1014.63 1014.90 1015.25 1016.07 1016.69 1017.27 1017.86 1018.65 1018.22 1017.91 1017.81 1018.03 1018.01 1018.12 1018.51
Wind_Speed
6 13 17 17 15 14 14 14 13 14 15 15 15 15 15 16 17 16 18 17 15 14 13 16 17 18 16 15 15 14 14 15 16 16 15 14 15 16 16 17 14 11 15
13 13 18 17 16 14 13 12 11 11 14 15 15 16 16 16 18 18 18 18 17 15 16 16 18 17 15 14 14 14 15 16 16 15 13 11 13 15 16 15 12 10 13
17 14 15 16 15 13 11 11 11 11 12 14 15 17 17 17 18 17 18 18 16 15 15 17 18 16 14 13 13 14 14 14 11 11 12 5 7 14 14 13 13 12 12
14 13 13 17 14 13 11 11 10 11 12 15 15 16 18 18 17 18 18 18 15 16 14 15 18 15 13 12 11 11 10 8 4 4 4 6 7 13 13 13 13 13 13
13 13 13 17 14 13 12 11 10 10 11 12 15 16 17 18 18 18 16 15 20 16 15 14 16 14 13 10 8 8 7 6 8 10 6 6 5 10 12 12 12 12 13
12 10 14 19 14 12 12 11 9 8 12 10 15 16 17 19 19 17 14 14 16 16 16 15 14 14 12 9 7 6 6 8 7 7 6 7 6 11 12 12 12 12 12
5 7 11 18 17 11 11 10 7 6 11 11 15 17 18 19 20 17 13 16 17 16 14 14 12 14 11 9 7 4 5 7 5 5 6 6 5 11 11 11 11 11 12
9 8 7 12 14 10 8 10 5 4 8 13 15 17 18 19 20 18 15 17 16 13 13 17 14 13 12 9 6 4 4 7 6 7 6 5 8 9 9 9 9 10 10
13 14 13 15 12 5 4 6 4 2 6 14 15 16 17 18 19 19 17 15 14 13 13 14 11 12 11 8 5 2 2 3 4 4 6 4 6 7 8 7 7 7 8
7 10 10 10 9 10 13 19 4 3 6 14 14 14 14 15 15 16 16 13 14 13 12 12 12 11 10 8 5 2 1 2 3 6 4 4 7 6 5 6 5 6 6
3 3 7 7 7 8 8 9 18 7 3 6 11 13 11 9 9 11 11 13 12 12 13 12 12 10 9 8 6 5 3 2 2 3 3 10 7 6 5 7 5 4 4
8 10 7 8 5 7 5 5 8 12 3 4 5 9 6 10 8 7 7 11 12 10 11 12 11 10 8 3 3 5 2 2 1 4 3 10 9 7 6 6 5 5 5
2 4 4 7 5 6 3 3 2 4 6 4 8 8 8 8 7 5 4 5 5 6 3 5 5 3 5 4 4 4 4 4 3 4 6 11 11 9 7 7 7 7 8
6 7 5 5 6 10 5 5 7 4 8 5 8 9 7 6 8 7 6 5 5 3 5 4 3 5 6 6 6 6 6 4 4 3 5 11 11 11 10 8 8 8 8
8 7 4 5 8 7 6 6 5 10 10 10 9 11 6 8 8 8 7 7 6 5 5 5 5 5 5 6 6 6 6 6 5 4 3 11 13 11 10 9 8 8 9
6 6 5 5 6 8 8 11 8 9 14 12 11 10 11 9 9 8 8 8 7 7 6 6 5 5 5 5 5 5 6 5 5 6 5 6 10 12 11 11 8 7 6
8 8 9 8 6 6 12 10 5 11 13 11 12 10 12 12 10 10 8 7 8 7 7 5 5 4 4 4 5 5 5 6 5 6 5 4 6 11 10 10 8 5 3
8 11 9 9 7 10 11 10 2 1 4 8 9 9 14 12 10 8 6 6 5 5 5 4 3 3 3 4 3 4 4 5 6 5 3 4 4 4 6 10 7 5 3
10 10 8 8 8 7 6 6 12 11 7 5 6 7 11 11 8 6 5 5 6 4 4 4 3 3 3 3 3 4 3 4 4 3 4 4 5 4 4 5 7 5 5
7 6 7 6 9 7 4 2 7 9 7 6 6 6 11 10 10 7 5 5 5 5 5 4 4 3 3 4 3 4 3 3 4 3 2 3 5 6 5 5 4 2 3
5 11 9 7 7 5 3 3 3 6 6 8 11 12 11 9 9 8 5 5 5 6 6 5 3 5 3 3 2 2 2 4 5 2 3 4 5 5 6 5 3 3 3
5 3 9 8 6 6 1 2 3 3 4 6 8 5 4 9 7 6 7 6 5 5 5 4 5 2 1 3 4 2 2 4 3 2 3 4 6 4 5 5 6 5 3
5 5 3 7 8 5 5 3 1 4 3 4 3 3 3 3 5 8 6 5 6 5 5 4 4 5 4 1 4 4 3 4 2 1 4 4 6 3 3 5 6 6 5
4 6 8 4 4 8 6 4 3 2 3 2 3 3 3 3 4 5 1 5 6 5 7 7 7 5 5 6 3 4 2 4 3 4 3 3 3 4 5 3 5 5 5
8 8 8 8 3 8 8 3 3 2 3 4 3 2 2 3 4 3 4 4 4 3 2 4 3 5 8 6 5 3 2 2 3 3 1 3 1 2 2 3 4 5 6
11 7 3 6 8 8 9 6 4 4 3 3 5 4 3 4 5 7 4 4 2 2 2 4 4 5 4 3 4 5 5 5 5 4 4 3 3 3 3 3 5 4 5
Wind_Direction
161 152 151 152 151 150 148 149 147 152 152 152 145 141 139 132 129 126 126 128 131 125 116 112 115 104 98 96 96 96 98 94 90 86 75 66 66 68 67 67 57 53 59
144 154 151 152 152 153 154 151 148 146 157 153 151 148 148 143 137 134 135 137 138 136 130 115 110 105 103 103 106 109 110 108 104 94 79 69 69 68 67 67 69 70 64
149 155 151 153 150 152 152 151 149 151 156 160 157 154 153 151 143 142 140 139 140 138 133 118 113 109 108 109 115 115 113 115 106 91 93 77 73 76 74 77 73 68 67
151 152 153 151 151 150 152 154 156 161 167 169 164 162 157 152 147 147 146 145 141 132 135 130 111 114 113 115 122 121 114 111 103 77 88 70 71 80 78 75 69 69 64
151 159 155 147 152 151 154 155 165 172 176 177 171 170 162 156 153 153 154 156 138 137 133 134 123 122 119 118 124 114 98 67 58 102 97 94 81 77 77 74 68 67 69
144 155 163 146 152 151 157 152 170 184 184 184 180 175 167 161 153 154 155 147 140 141 142 143 130 127 125 121 116 97 64 45 60 108 94 89 92 83 77 74 72 69 66
43 146 161 149 145 145 155 150 173 198 199 188 185 178 170 165 153 152 157 143 145 151 147 147 138 133 132 127 120 97 58 27 77 100 103 91 83 85 78 74 71 66 63
74 49 139 147 136 140 157 137 163 223 222 183 185 179 172 164 149 149 157 158 153 154 154 150 149 149 138 136 131 111 56 36 65 119 116 109 104 96 88 79 72 70 68
84 77 60 47 38 61 133 126 157 247 251 184 185 179 172 158 149 157 159 154 158 148 135 136 140 131 140 143 145 138 76 25 92 125 125 122 128 113 102 96 91 83 80
57 91 77 73 56 55 37 6 288 246 287 195 183 169 154 147 150 152 143 156 157 150 141 137 141 145 147 151 159 191 227 353 105 135 127 150 145 129 132 128 114 102 97
101 99 120 103 90 58 31 1 353 257 297 199 148 144 148 146 141 145 145 158 153 152 147 145 148 147 149 157 173 211 222 202 93 142 152 156 156 147 138 152 155 143 132
177 188 164 139 118 62 13 40 352 323 230 144 161 156 158 148 148 150 149 158 149 157 154 156 155 157 158 174 204 218 240 224 225 169 169 159 164 169 162 173 186 191 181
118 336 199 177 121 95 200 211 182 296 278 177 178 172 174 150 147 156 154 160 139 164 168 154 156 165 183 185 210 218 214 231 187 182 171 172 175 186 191 196 210 218 219
167 181 217 168 165 181 176 178 185 208 252 210 184 216 176 154 152 162 158 157 156 170 175 170 177 191 203 207 215 222 214 211 178 181 189 180 187 195 200 210 227 235 235
177 183 206 179 178 190 193 179 210 210 229 207 191 188 198 166 161 164 166 167 170 176 183 189 192 197 212 211 205 210 219 219 186 182 186 191 190 202 210 215 228 245 257
163 172 184 191 193 168 204 186 207 233 213 195 189 196 177 177 166 173 176 177 181 185 187 188 192 198 214 210 223 221 212 213 219 192 197 189 197 199 211 219 226 233 257
185 168 182 190 186 192 216 230 245 213 194 181 184 180 179 170 169 171 175 179 185 192 178 185 201 187 191 217 214 218 221 225 224 215 178 194 193 207 208 218 224 220 267
169 170 179 182 206 215 222 226 138 193 216 176 172 164 165 166 164 160 165 174 173 169 175 168 178 201 212 193 198 224 230 227 213 228 184 189 181 183 207 215 211 207 225
159 164 182 179 210 221 223 202 129 206 207 205 160 162 165 168 161 152 162 175 173 170 174 171 186 165 185 198 210 246 244 242 237 177 205 151 157 162 190 208 198 195 230
156 180 178 198 218 231 207 283 142 170 208 221 182 166 166 169 162 159 160 177 174 172 176 172 162 188 163 202 223 236 230 209 182 170 87 147 137 144 151 140 150 167 196
174 180 170 206 218 216 188 182 204 150 179 199 213 177 164 166 160 155 161 151 152 164 172 170 169 185 210 173 111 313 234 236 209 186 155 163 144 151 137 144 156 162 152
68 198 195 206 206 212 190 198 98 146 151 202 201 224 239 169 170 174 160 155 147 133 136 137 141 128 178 188 166 128 260 314 310 228 162 183 151 145 131 135 155 155 144
52 13 272 199 212 153 127 89 121 103 113 117 165 94 30 356 140 155 174 180 162 171 186 185 172 172 169 151 163 164 142 219 340 5 181 178 151 143 155 144 158 159 163
27 4 23 307 187 128 96 94 85 113 117 119 122 129 132 72 4 357 266 201 187 173 189 184 183 175 177 211 198 199 143 136 118 341 327 223 173 144 171 182 156 154 154
33 21 5 352 40 97 111 74 56 93 103 91 98 159 157 178 190 266 267 263 245 207 214 224 256 218 197 170 181 187 152 137 110 144 256 319 78 98 175 207 174 160 151
30 17 343 8 25 31 28 8 320 209 190 165 162 194 206 203 199 198 209 221 247 273 221 220 208 214 230 229 184 175 166 166 174 165 158 227 290 289 263 237 189 162 156